When you browse on this site, cookies collect data to enhance your experience and personalize the content and advertising you see.
Visit our Privacy Policy to learn more. By continuing to use the site, you agree to this use of cookies and data.
  • In Austria
  • List of Countries
  • For 7 days
  • Water Temperature
  • Weather Map
  • News
  • Weather Widgets
  • user-avatar
    Login

    Hourly Weather Urussu

    Today, 29 May, Friday

    Time Temperature Precipitation Wind Pressure Humidity
    00:00 +13°C° 0 mm 2 mps 757 mmHg 90%
    01:00 +13°C° 0 mm 2 mps 757 mmHg 90%
    02:00 +12°C° 0 mm 2 mps 757 mmHg 91%
    03:00 +12°C° 0 mm 2 mps 757 mmHg 91%
    04:00 +12°C° 0 mm 2 mps 758 mmHg 91%
    05:00 +13°C° 0 mm 2 mps 758 mmHg 87%
    06:00 +14°C° 0 mm 2 mps 758 mmHg 83%
    07:00 +15°C° 0 mm 2 mps 757 mmHg 79%
    08:00 +17°C° 0 mm 3 mps 758 mmHg 73%
    09:00 +19°C° 0 mm 3 mps 758 mmHg 67%
    10:00 +20°C° 0 mm 4 mps 758 mmHg 61%
    11:00 +21°C° 0 mm 4 mps 757 mmHg 58%
    12:00 +22°C° 0 mm 4 mps 757 mmHg 56%
    13:00 +22°C° 0 mm 4 mps 757 mmHg 54%
    14:00 +22°C° 0 mm 4 mps 757 mmHg 54%
    15:00 +22°C° 0 mm 4 mps 757 mmHg 55%
    16:00 +22°C° 0 mm 4 mps 756 mmHg 55%
    17:00 +22°C° 0 mm 3 mps 756 mmHg 60%
    18:00 +21°C° 0 mm 3 mps 756 mmHg 65%
    19:00 +20°C° 0 mm 2 mps 756 mmHg 69%
    20:00 +19°C° 0 mm 2 mps 756 mmHg 73%
    21:00 +17°C° 0 mm 2 mps 756 mmHg 76%
    22:00 +15°C° 0 mm 2 mps 755 mmHg 80%
    23:00 +15°C° 0 mm 1 mps 755 mmHg 81%

    Tomorrow, 30 May, Saturday

    Time Temperature Precipitation Wind Pressure Humidity
    00:00 +14°C° 0 mm 1 mps 755 mmHg 82%
    01:00 +13°C° 0 mm 1 mps 755 mmHg 84%
    02:00 +13°C° 0 mm 1 mps 755 mmHg 84%
    03:00 +13°C° 0 mm 1 mps 755 mmHg 84%
    04:00 +12°C° 0 mm 1 mps 755 mmHg 84%
    05:00 +14°C° 0 mm 1 mps 755 mmHg 80%
    06:00 +15°C° 0 mm 1 mps 755 mmHg 76%
    07:00 +17°C° 0 mm 2 mps 754 mmHg 72%
    08:00 +18°C° 0 mm 2 mps 754 mmHg 68%
    09:00 +20°C° 0 mm 2 mps 754 mmHg 64%
    10:00 +23°C° 0 mm 2 mps 754 mmHg 59%
    11:00 +24°C° 0 mm 2 mps 753 mmHg 55%
    12:00 +25°C° 0 mm 2 mps 753 mmHg 51%
    13:00 +26°C° 0 mm 2 mps 753 mmHg 47%
    14:00 +27°C° 0 mm 3 mps 752 mmHg 48%
    15:00 +27°C° 0 mm 3 mps 752 mmHg 49%
    16:00 +27°C° 0 mm 3 mps 751 mmHg 50%
    17:00 +26°C° 0 mm 3 mps 751 mmHg 56%
    18:00 +25°C° 0 mm 3 mps 751 mmHg 62%
    19:00 +24°C° 0 mm 2 mps 750 mmHg 68%
    20:00 +21°C° 0 mm 2 mps 750 mmHg 72%
    21:00 +19°C° 0 mm 2 mps 750 mmHg 75%
    22:00 +18°C° 0 mm 2 mps 749 mmHg 79%
    23:00 +18°C° 0 mm 2 mps 749 mmHg 79%

    Day after tomorrow, 31 May, Sunday

    Time Temperature Precipitation Wind Pressure Humidity
    00:00 +17°C° 0 mm 2 mps 748 mmHg 78%
    01:00 +17°C° 0 mm 2 mps 748 mmHg 77%
    02:00 +17°C° 0 mm 2 mps 747 mmHg 75%
    03:00 +18°C° 0 mm 3 mps 746 mmHg 73%
    04:00 +18°C° 0 mm 3 mps 746 mmHg 71%
    05:00 +18°C° 0.1 mm 3 mps 745 mmHg 75%
    06:00 +18°C° 0.1 mm 3 mps 745 mmHg 78%
    07:00 +18°C° 0.1 mm 3 mps 744 mmHg 82%
    08:00 +20°C° 0 mm 3 mps 744 mmHg 78%
    09:00 +22°C° 0 mm 4 mps 743 mmHg 74%
    10:00 +25°C° 0 mm 4 mps 743 mmHg 70%
    11:00 +25°C° 0.4 mm 4 mps 743 mmHg 71%
    12:00 +25°C° 0.4 mm 3 mps 742 mmHg 72%
    13:00 +25°C° 0.4 mm 2 mps 742 mmHg 73%
    14:00 +24°C° 0.8 mm 3 mps 742 mmHg 77%
    15:00 +23°C° 0.8 mm 4 mps 743 mmHg 80%
    16:00 +22°C° 0.8 mm 5 mps 743 mmHg 84%
    17:00 +20°C° 0.4 mm 4 mps 743 mmHg 87%
    18:00 +18°C° 0.4 mm 4 mps 743 mmHg 90%
    19:00 +15°C° 0.4 mm 4 mps 743 mmHg 94%
    20:00 +14°C° 0 mm 3 mps 744 mmHg 94%
    21:00 +15°C° 0 mm 2 mps 744 mmHg 94%
    22:00 +15°C° 0 mm 1 mps 744 mmHg 94%
    23:00 +15°C° 0 mm 1 mps 744 mmHg 95%

    1 June, Monday

    Time Temperature Precipitation Wind Pressure Humidity
    00:00 +14°C° 0 mm 1 mps 744 mmHg 96%
    01:00 +14°C° 0 mm 2 mps 744 mmHg 96%
    02:00 +14°C° 0 mm 2 mps 744 mmHg 96%
    03:00 +13°C° 0 mm 3 mps 744 mmHg 96%
    04:00 +13°C° 0 mm 4 mps 744 mmHg 96%
    05:00 +13°C° 0 mm 4 mps 744 mmHg 93%
    06:00 +14°C° 0 mm 5 mps 744 mmHg 90%
    07:00 +14°C° 0 mm 5 mps 744 mmHg 87%
    08:00 +15°C° 0.1 mm 5 mps 744 mmHg 84%
    09:00 +16°C° 0.1 mm 5 mps 744 mmHg 80%
    10:00 +16°C° 0.1 mm 5 mps 744 mmHg 77%
    11:00 +17°C° 0.7 mm 6 mps 744 mmHg 76%
    12:00 +18°C° 0.7 mm 7 mps 744 mmHg 74%
    13:00 +18°C° 0.7 mm 8 mps 744 mmHg 73%
    14:00 +18°C° 0.5 mm 8 mps 744 mmHg 73%
    15:00 +18°C° 0.5 mm 7 mps 744 mmHg 72%
    16:00 +18°C° 0.5 mm 7 mps 744 mmHg 72%
    17:00 +19°C° 0.2 mm 6 mps 745 mmHg 74%
    18:00 +17°C° 0.2 mm 5 mps 745 mmHg 77%
    19:00 +17°C° 0.2 mm 4 mps 745 mmHg 79%
    20:00 +14°C° 0 mm 4 mps 745 mmHg 82%
    21:00 +13°C° 0 mm 3 mps 745 mmHg 85%
    22:00 +11°C° 0 mm 3 mps 746 mmHg 88%
    23:00 +11°C° 0 mm 3 mps 746 mmHg 90%

    2 June, Tuesday

    Time Temperature Precipitation Wind Pressure Humidity
    00:00 +10°C° 0 mm 3 mps 746 mmHg 91%
    01:00 +9°C° 0 mm 3 mps 746 mmHg 93%
    02:00 +8°C° 0 mm 3 mps 746 mmHg 94%
    03:00 +8°C° 0 mm 3 mps 747 mmHg 94%
    04:00 +7°C° 0 mm 3 mps 747 mmHg 95%
    05:00 +7°C° 0 mm 4 mps 747 mmHg 91%
    06:00 +7°C° 0 mm 4 mps 747 mmHg 88%
    07:00 +8°C° 0 mm 5 mps 747 mmHg 85%
    08:00 +9°C° 0 mm 5 mps 748 mmHg 81%
    09:00 +10°C° 0 mm 5 mps 748 mmHg 77%
    10:00 +12°C° 0 mm 5 mps 748 mmHg 74%
    11:00 +13°C° 0 mm 5 mps 749 mmHg 72%
    12:00 +14°C° 0 mm 4 mps 749 mmHg 70%
    13:00 +14°C° 0 mm 4 mps 749 mmHg 68%
    14:00 +14°C° 0 mm 4 mps 749 mmHg 68%
    15:00 +14°C° 0 mm 3 mps 749 mmHg 69%
    16:00 +14°C° 0 mm 3 mps 749 mmHg 70%
    17:00 +14°C° 0 mm 3 mps 749 mmHg 72%
    18:00 +13°C° 0 mm 3 mps 749 mmHg 75%
    19:00 +13°C° 0 mm 3 mps 749 mmHg 78%
    20:00 +12°C° 0 mm 3 mps 749 mmHg 81%
    21:00 +12°C° 0 mm 2 mps 749 mmHg 84%
    22:00 +10°C° 0 mm 2 mps 749 mmHg 87%
    23:00 +10°C° 0 mm 2 mps 749 mmHg 89%

    3 June, Wednesday

    Time Temperature Precipitation Wind Pressure Humidity
    00:00 +10°C° 0 mm 2 mps 749 mmHg 90%
    01:00 +9°C° 0 mm 3 mps 748 mmHg 92%
    02:00 +9°C° 0.1 mm 2 mps 748 mmHg 92%
    03:00 +9°C° 0.1 mm 2 mps 748 mmHg 92%
    04:00 +9°C° 0.1 mm 2 mps 748 mmHg 92%
    05:00 +9°C° 0 mm 3 mps 748 mmHg 90%
    06:00 +10°C° 0 mm 3 mps 748 mmHg 88%
    07:00 +10°C° 0 mm 4 mps 748 mmHg 86%
    08:00 +11°C° 0 mm 4 mps 748 mmHg 81%
    09:00 +13°C° 0 mm 4 mps 748 mmHg 76%
    10:00 +14°C° 0 mm 4 mps 747 mmHg 71%
    11:00 +14°C° 0 mm 3 mps 747 mmHg 70%
    12:00 +16°C° 0 mm 3 mps 747 mmHg 69%
    13:00 +16°C° 0 mm 3 mps 748 mmHg 69%
    14:00 +16°C° 0 mm 3 mps 747 mmHg 68%
    15:00 +17°C° 0 mm 3 mps 747 mmHg 67%
    16:00 +17°C° 0 mm 3 mps 747 mmHg 66%
    17:00 +17°C° 0 mm 3 mps 748 mmHg 69%
    18:00 +16°C° 0 mm 2 mps 748 mmHg 71%
    19:00 +16°C° 0 mm 2 mps 748 mmHg 74%
    20:00 +14°C° 0 mm 2 mps 748 mmHg 78%
    21:00 +13°C° 0 mm 1 mps 748 mmHg 81%
    22:00 +12°C° 0 mm 1 mps 748 mmHg 85%
    23:00 +11°C° 0 mm 1 mps 748 mmHg 86%
    Show more